Regional Weather Roundup
Issued by NWS

Home | Current Version | Previous Version | Text Only | Print | Product List | Glossary On
Versions: 1 2 3 4 5 6 7 8 9 10 11 12 13 14 15 16 17 18 19 20 21 22 23 24 25 26 27 28 29 30 31 32 33 34 35 36 37 38 39 40 41 42 43 44 45 46 47 48 49 50
562
ASUS43 KDTX 251610
RWRMI
MICHIGAN HOURLY REGIONAL WEATHER ROUNDUP
NATIONAL WEATHER SERVICE DETROIT/PONTIAC MI
1200 PM EDT MON SEP 25 2017

NOTE: "FAIR" INDICATES FEW OR NO CLOUDS BELOW 12,000 FEET WITH NO
SIGNIFICANT WEATHER AND/OR OBSTRUCTION TO VISIBILITY.

MIZ047>049-052>055-059>063-066>070-074>076-081>083-251700-
SOUTHEAST LOWER MICHIGAN

CITY           SKY/WX    TMP DP  RH WIND       PRES   REMARKS
ADRIAN         SUNNY     86  59  39 CALM      30.07F
ALMA           SUNNY     86  50  29 CALM      30.06F
ANN ARBOR      SUNNY     86  64  47 SE5       30.06F
BAD AXE        PTSUNNY   81  65  59 CALM      30.09S
CARO           PTSUNNY   83  66  56 CALM      30.07S
DETROIT CITY   SUNNY     84  70  62 SE3       30.06F
DETROIT        MOSUNNY   85  68  56 S5        30.07F
FLINT          MOSUNNY   84  65  52 CALM      30.07F
GROSSE ILE     SUNNY     78  72  80 S6        30.06S
HILLSDALE      CLOUDY    86  54  32 CALM      30.08S
HOWELL         MOSUNNY   84  65  51 CALM      30.07F

CITY           SKY/WX    TMP DP  RH WIND       PRES   REMARKS
JACKSON        SUNNY     85  58  39 SW3       30.07F
LAMBERTVILLE   SUNNY     85  66  51 CALM      30.06S
LANSING        MOSUNNY   84  59  42 W5        30.07F
LAPEER         FAIR      85  63  47 SW3       30.08S
MASON          MOSUNNY   86  58  37 CALM      30.07F
MONROE         SUNNY     85  68  57 CALM      30.05F
MT. CLEMENS    PTSUNNY   81  73  78 E6        30.06F
PONTIAC        PTSUNNY   85  62  46 SW6       30.07F
PORT HOPE        N/A     73  66  78 SE9       30.07S
PORT HURON     MOSUNNY   84  68  58 CALM      30.07F
TRI CITIES     MOSUNNY   82  68  62 VRB3      30.07S
MIDLAND        FAIR      83  65  54 CALM      30.06S
TROY           MOSUNNY   85  65  51 CALM      30.08S
SAGINAW HB     PTSUNNY   82  64  54 CALM      30.05F
$$
MIZ043>046-050>051-056>058-064>065-071>073-077>080-251700-
SOUTHWEST LOWER MICHIGAN

CITY           SKY/WX    TMP DP  RH WIND       PRES   REMARKS
BATTLE CREEK   MOSUNNY   84  55  36 CALM      30.08S
BENTON HARBOR  MOSUNNY   82  59  45 S6        30.04F
BIG RAPIDS     SUNNY     85  54  34 CALM      30.05F
COLDWATER      SUNNY     85  51  30 CALM      30.07F
FREMONT        FAIR      82  59  44 CALM      30.04S
HOLLAND        SUNNY     85  60  42 VRB5      30.05F
GRAND RAPIDS   MOSUNNY   86  56  35 S7        30.05F
IONIA          FAIR      86  53  31 SW8       30.06S
KALAMAZOO      MOSUNNY   84  55  36 VRB3      30.07S
LUDINGTON      SUNNY     83  60  45 S6        30.02S
MARSHALL       MOSUNNY   85  55  36 SW3       30.07S
MOUNT PLEASANT SUNNY     86  53  31 SW6       30.05F
MUSKEGON       MOSUNNY   84  55  36 S10       30.04S
SOUTH HAVEN    MOSUNNY   84  58  41 S3        30.04F
$$
MIZ016>042-251700-
NORTHERN LOWER MICHIGAN

CITY           SKY/WX    TMP DP  RH WIND       PRES   REMARKS
ALPENA         MOSUNNY   85  66  53 S6        30.05F
BELLAIRE       PTSUNNY   81  59  47 SW5       30.03S
CADILLAC       SUNNY     85  54  35 SW5       30.06F
CHARLEVOIX     CLOUDY    78  61  55 S6        30.05S
FRANKFORT      MOSUNNY   84  59  42 S3        30.02S
GAYLORD        MOSUNNY   81  59  47 SW7       30.07F
GRAYLING       MOSUNNY   83  59  43 CALM      30.07F
HARBOR SPRINGS CLOUDY    79  60  50 CALM      30.02F
HOUGHTON LAKE  MOSUNNY   82  60  47 S6        30.08F
MANISTEE       SUNNY     83  63  50 SW5       30.02S
OSCODA         MOSUNNY   82  65  57 SW3       30.06F
PELLSTON       CLOUDY    80  61  52 SW7       30.03S
ROGERS CITY    PTSUNNY   80  65  59 SW5       30.05S
TRAVERSE CITY  PTSUNNY   86  59  39 S5        30.01F
$$
MIZ007>008-015-251700-
EASTERN UPPER MICHIGAN

CITY           SKY/WX    TMP DP  RH WIND       PRES   REMARKS
KINROSS        SUNNY     81  63  54 SW8       30.03S
MACKINAC ISLAN MOSUNNY   80  60  50 W6        30.03R
NEWBERRY       SUNNY     80  65  62 S8        30.00S
S. S. MARIE    SUNNY     81  65  58 S7        30.00F
MUNISING         N/A     80  68  66 S7        29.96F
$$
MIZ004>006-011>014-085-251700-
CENTRAL UPPER MICHIGAN

CITY           SKY/WX    TMP DP  RH WIND       PRES   REMARKS
MANISTIQUE       N/A     73  67  80 S10       30.00S
MENOMINEE      MOSUNNY   78  64  61 SW5       29.99S
SAWYER-GWINN   PTSUNNY   73  63  68 SW6       30.01R
$$
MIZ001>003-009>011-084-251700-
WESTERN UPPER MICHIGAN

CITY           SKY/WX    TMP DP  RH WIND       PRES   REMARKS
IRON MOUNTAIN  SUNNY     78  63  59 CALM      29.99R
HOUGHTON       CLOUDY    71  62  73 W16       29.98R
COPPER HARBOR    N/A     70  63  78 N8        29.95R
IRONWOOD       CLOUDY    67  62  84 N5        30.00R
$$

ABBREVIATIONS USED IN REMARKS
   TC - TEMPERATURE IN CELSIUS
  WCI - WIND CHILL INDEX
   HX - HEAT INDEX
  VSB - VISIBILITY





USA.gov is the U.S. government's official web portal to all federal, state and local government web resources and services.